Starlink 34232

operational
NORAD ID: 65019 Int'l Des: 2025-161 Owner: SPXS Country: US Constellation: starlink
LEOCIRCULAR

Starlink 34232について

説明を読み込み中...

リアルタイム位置

3D地球を読み込み中...

次回通過

高度履歴

Altitude vs Time

uPlot chart will show altitude changes over time

軌道要素

1 65019U 25161E 26094.59448919 .00043297 00000-0 14639-2 0 9996
2 65019 53.1595 174.0454 0001333 108.3835 251.7311 15.30234313 39405
Epoch: Apr 4, 2026 • Age: 25 hours

現在のステータス

高度 491.0 km
速度 7.62 km/s
衛星直下点 -45.76°S, 17.28°W
打ち上げ日 Jul 30, 2025
運用期間 0.6 years
タイプ internet

技術仕様

分類 Payload
質量 575.00 kg
乾燥質量 530.00 kg
総質量 575.00 kg
長さ 0.30 m
直径 4.10 m
スパン 29.00 m
形状 Box + pan
製造者 SPXS
バスタイプ Starlink V2MO
フェーズステータス In Orbit
所有者/国 SPXS/US

大規模コンステレーション

Loading constellations...